FW5428 Weather Reports


Display with metric or nautical units.
time (UTC)temp
F
wind
direction
speed
MPH
gust
MPH
rain 1hr
in
rain 24hr
in
rain mn
in
humidity
%
barometer
mb
20260507105114 63 180 8.0 17.0 0.00 0.01 0.04 94 999.2
20260507104054 63 270 11.0 17.0 0.00 0.01 0.04 95 999.7
20260507103545 63 225 12.0 18.0 0.00 0.01 0.04 95 999.0
20260507103034 63 225 11.0 18.0 0.00 0.01 0.04 95 998.2
20260507102524 63 225 12.0 16.0 0.00 0.01 0.04 95 997.3
20260507102013 63 180 6.0 9.0 0.00 0.01 0.04 95 998.3
20260507101503 63 90 1.0 11.0 0.00 0.01 0.04 95 998.4
20260507100953 63 90 2.0 11.0 0.00 0.01 0.04 95 997.9
20260507100443 63 135 8.0 11.0 0.00 0.01 0.04 95 997.5
20260507095933 63 90 8.0 11.0 0.00 0.01 0.04 95 996.7
20260507095427 63 180 8.0 11.0 0.01 0.01 0.04 95 997.3
20260507094403 63 135 6.0 11.0 0.01 0.01 0.04 94 997.0
20260507093853 63 180 4.0 9.0 0.01 0.01 0.04 94 996.9
20260507093343 63 180 4.0 6.0 0.01 0.01 0.04 94 997.1
20260507092832 63 180 2.0 5.0 0.01 0.01 0.04 94 997.7
20260507091302 63 0 6.0 10.0 0.01 0.01 0.04 94 998.5
20260507090751 63 0 1.0 8.0 0.01 0.01 0.04 94 998.4
20260507090242 63 90 4.0 11.0 0.01 0.01 0.04 94 997.9
20260507085731 63 90 3.0 13.0 0.00 0.00 0.04 94 997.6
20260507085221 63 135 9.0 16.0 0.00 0.00 0.02 93 997.5
20260507084711 63 90 8.0 17.0 0.00 0.00 0.02 93 997.3
20260507084201 63 135 11.0 17.0 0.00 0.00 0.02 93 997.1
20260507083651 63 90 4.0 7.0 0.00 0.00 0.02 93 997.7
20260507064925 75 225 39.0 58.0 0.02 0.02 0.02 85 1000.3
20260507064415 76 315 9.0 20.0 0.01 0.01 0.01 85 999.1
20260507062845 77 0 7.0 21.0 0.00 0.00 0.00 83 999.3
20260507061824 77 0 4.0 23.0 0.00 0.00 0.00 82 999.2
20260507061314 77 315 13.0 21.0 0.00 0.00 0.00 82 999.2
20260507060804 77 270 12.0 0.0 0.00 0.00 0.00 82 999.1
20260507060158 76 315 9.0 0.0 0.00 0.00 0.00 82 998.5
20260507060001 76 315 9.0 17.0 0.00 0.00 0.00 82 998.5
20260507055444 76 0 10.0 17.0 0.00 0.00 0.00 82 998.4
20260507054934 76 0 8.0 17.0 0.00 0.00 0.00 82 998.6
20260507054425 76 0 8.0 18.0 0.00 0.00 0.00 82 998.6
20260507053915 76 315 10.0 18.0 0.00 0.00 0.00 82 998.9
20260507052344 76 270 7.0 16.0 0.00 0.00 0.00 83 999.3
20260507051834 76 315 11.0 19.0 0.00 0.00 0.00 82 999.4
20260507050813 76 0 6.0 23.0 0.00 0.00 0.00 82 999.3
20260507050304 76 0 7.0 19.0 0.00 0.00 0.00 83 998.9
20260507045753 76 0 8.0 26.0 0.00 0.00 0.00 83 998.7
20260507045243 76 0 8.0 26.0 0.00 0.00 0.00 83 998.2
20260507044222 76 0 12.0 23.0 0.00 0.00 0.00 83 998.6
20260507043713 76 0 8.0 21.0 0.00 0.00 0.00 83 998.5
20260507043203 76 0 8.0 26.0 0.00 0.00 0.00 83 998.6
20260507042653 76 0 9.0 26.0 0.00 0.00 0.00 83 998.5
20260507042143 76 0 10.0 21.0 0.00 0.00 0.00 83 998.4
20260507041633 76 0 7.0 19.0 0.00 0.00 0.00 84 998.1
20260507041123 76 270 4.0 19.0 0.00 0.00 0.00 84 998.3
20260507040059 76 270 9.0 19.0 0.00 0.00 0.00 83 999.1
20260507035551 76 0 10.0 20.0 0.00 0.00 0.00 83 999.4
20260507034532 75 0 6.0 17.0 0.00 0.00 0.00 84 999.5
20260507034022 75 0 8.0 21.0 0.00 0.00 0.00 84 999.7
20260507033511 75 0 10.0 21.0 0.00 0.00 0.00 84 999.4
20260507033001 75 0 9.0 15.0 0.00 0.00 0.00 85 999.7
20260507032451 75 270 4.0 21.0 0.00 0.00 0.00 85 999.8
20260507031941 75 315 5.0 21.0 0.00 0.00 0.00 85 1000.0
20260507031430 74 0 4.0 15.0 0.00 0.00 0.00 85 1000.2
20260507030921 74 0 7.0 15.0 0.00 0.00 0.00 85 1000.4
20260507030410 74 0 7.0 13.0 0.00 0.00 0.00 86 1000.4
20260507025351 75 0 3.0 12.0 0.00 0.00 0.01 85 1000.5
20260507024841 75 0 2.0 13.0 0.00 0.00 0.01 85 1000.4
20260507022800 75 0 7.0 13.0 0.00 0.00 0.01 85 1000.6
20260507022249 76 0 4.0 13.0 0.00 0.00 0.01 85 1000.7
20260507021739 76 0 6.0 17.0 0.00 0.00 0.01 85 1000.8
20260507021230 76 0 4.0 17.0 0.00 0.00 0.01 84 1000.9
20260507020720 76 0 7.0 13.0 0.00 0.00 0.01 84 1000.8
20260507015659 76 0 4.0 15.0 0.00 0.00 0.01 83 1001.2
20260507015149 77 0 8.0 15.0 0.00 0.00 0.01 83 1001.2
20260507014639 77 315 8.0 15.0 0.00 0.00 0.01 83 1001.2
20260507014129 77 270 5.0 16.0 0.00 0.00 0.01 83 1001.4
20260507013619 77 0 7.0 16.0 0.00 0.00 0.01 83 1001.3
20260507013108 77 0 8.0 17.0 0.00 0.00 0.01 83 1001.2
20260507012049 77 0 6.0 16.0 0.00 0.00 0.01 83 1001.6
20260507011538 78 135 8.0 17.0 0.00 0.00 0.01 82 1001.5
20260507010012 78 45 9.0 20.0 0.00 0.00 0.01 82 1001.8
20260507005458 78 0 8.0 23.0 0.00 0.00 0.01 82 1001.6
20260507004947 78 315 9.0 23.0 0.00 0.00 0.01 82 1001.8
20260507004438 78 0 6.0 15.0 0.00 0.00 0.01 82 1001.9
20260507003928 78 0 8.0 17.0 0.00 0.00 0.01 82 1001.9
20260507002907 78 90 2.0 16.0 0.00 0.00 0.01 82 1001.9
20260507001906 78 0 8.0 21.0 0.00 0.00 0.01 81 1001.9
20260507001336 78 315 6.0 17.0 0.00 0.00 0.01 81 1001.7
20260507000839 78 315 6.0 17.0 0.00 0.00 0.01 81 1001.7
20260507000317 78 0 9.0 20.0 0.00 0.00 0.01 82 1001.8
20260506235257 77 0 5.0 17.0 0.00 0.00 0.01 83 1001.6
20260506234746 77 45 8.0 19.0 0.00 0.00 0.01 84 1001.5
20260506234236 77 0 8.0 19.0 0.00 0.00 0.01 84 1001.5
20260506233726 77 0 7.0 17.0 0.00 0.00 0.01 84 1001.5
20260506233216 77 0 9.0 16.0 0.00 0.00 0.01 84 1001.8
20260506232707 78 45 7.0 16.0 0.00 0.00 0.01 84 1001.8
20260506232156 78 0 7.0 15.0 0.00 0.00 0.01 83 1002.2
20260506231645 78 180 7.0 15.0 0.00 0.00 0.01 83 1002.3
20260506231135 78 0 7.0 15.0 0.00 0.00 0.01 82 1002.4
20260506230115 78 0 3.0 14.0 0.00 0.00 0.01 82 1002.6
20260506225605 79 270 5.0 14.0 0.00 0.00 0.01 81 1002.6
20260506225055 79 45 5.0 15.0 0.00 0.00 0.01 81 1002.6
20260506224545 79 0 4.0 15.0 0.00 0.00 0.01 80 1002.5
20260506223525 80 270 1.0 16.0 0.00 0.00 0.01 79 1002.4
20260506223015 80 0 5.0 16.0 0.00 0.00 0.01 78 1002.4
20260506221954 80 0 7.0 15.0 0.00 0.00 0.01 78 1002.2
20260506221445 80 45 6.0 15.0 0.00 0.00 0.01 78 1002.5
20260506220424 81 0 4.0 15.0 0.00 0.00 0.01 77 1002.3
20260506215914 81 0 8.0 17.0 0.00 0.00 0.01 77 1002.5
20260506214854 81 0 7.0 15.0 0.00 0.00 0.01 77 1002.2
20260506214344 81 0 2.0 15.0 0.00 0.00 0.01 77 1002.4
20260506213833 81 90 4.0 15.0 0.00 0.00 0.01 76 1002.4
20260506213323 81 0 9.0 15.0 0.00 0.00 0.01 76 1002.4
20260506212814 82 0 6.0 13.0 0.00 0.00 0.01 76 1002.3
20260506212306 82 0 7.0 13.0 0.00 0.00 0.01 75 1002.2
20260506211802 82 0 4.0 19.0 0.00 0.00 0.01 74 1002.2
20260506211243 82 90 8.0 19.0 0.00 0.00 0.01 74 1002.1
20260506210223 83 0 7.0 16.0 0.00 0.00 0.01 73 1002.0
20260506205713 83 0 7.0 17.0 0.00 0.00 0.01 73 1002.0
20260506205202 83 0 8.0 18.0 0.00 0.00 0.01 72 1002.1
20260506204652 83 0 8.0 18.0 0.00 0.00 0.01 72 1002.1
20260506204143 83 0 5.0 17.0 0.00 0.00 0.01 72 1002.1
20260506203122 83 0 5.0 18.0 0.00 0.00 0.01 72 1002.2
20260506202612 83 0 5.0 18.0 0.00 0.00 0.01 72 1002.4
20260506202102 83 0 5.0 14.0 0.00 0.00 0.01 72 1002.3
20260506201551 83 0 4.0 15.0 0.00 0.00 0.01 73 1002.6
20260506201041 84 0 5.0 15.0 0.00 0.00 0.01 72 1002.4
20260506200536 84 270 3.0 17.0 0.00 0.00 0.01 71 1002.6
20260506195512 84 90 6.0 20.0 0.00 0.00 0.01 70 1002.7
20260506195001 84 0 9.0 22.0 0.00 0.00 0.01 70 1002.7
20260506194452 84 0 8.0 22.0 0.00 0.00 0.01 70 1002.6
20260506193941 85 135 11.0 22.0 0.00 0.00 0.01 69 1002.3
20260506193431 85 0 7.0 18.0 0.00 0.00 0.01 70 1002.7
20260506192920 85 90 4.0 18.0 0.00 0.00 0.01 69 1002.8
20260506192411 85 0 6.0 17.0 0.00 0.00 0.01 69 1002.5
20260506191350 85 0 4.0 21.0 0.00 0.00 0.01 69 1003.0
20260506190840 86 315 8.0 25.0 0.00 0.00 0.01 68 1002.7
20260506185820 86 0 7.0 21.0 0.00 0.00 0.01 66 1002.9
20260506184800 86 0 7.0 17.0 0.00 0.00 0.01 67 1003.0
20260506184249 86 45 13.0 17.0 0.00 0.00 0.01 67 1003.1
20260506183739 86 315 4.0 17.0 0.00 0.00 0.01 69 1003.0
20260506182723 86 0 10.0 27.0 0.00 0.00 0.01 66 1003.2
20260506182209 87 0 9.0 27.0 0.00 0.00 0.01 66 1003.3
20260506181659 86 315 6.0 25.0 0.00 0.00 0.01 64 1003.2
20260506181149 86 270 11.0 17.0 0.00 0.00 0.01 65 1003.4
20260506180639 86 0 10.0 17.0 0.00 0.00 0.01 67 1003.6
20260506175619 87 0 4.0 23.0 0.00 0.00 0.01 65 1003.6
20260506175108 87 0 10.0 23.0 0.00 0.00 0.01 64 1003.7
20260506174558 87 0 8.0 20.0 0.00 0.00 0.01 66 1003.8
20260506174049 87 0 10.0 22.0 0.00 0.00 0.01 65 1003.9
20260506173539 87 0 8.0 22.0 0.00 0.00 0.01 63 1003.9
20260506173028 87 0 5.0 18.0 0.00 0.00 0.01 64 1004.1
20260506172518 86 0 4.0 18.0 0.00 0.00 0.01 65 1004.1
20260506172007 86 0 8.0 17.0 0.00 0.00 0.01 65 1004.6
20260506171458 86 0 4.0 16.0 0.00 0.00 0.01 67 1004.5
20260506170947 85 0 8.0 16.0 0.00 0.00 0.01 68 1004.4
20260506165928 85 0 8.0 16.0 0.00 0.00 0.01 67 1004.9
20260506164907 86 0 3.0 19.0 0.00 0.00 0.01 68 1005.0
20260506164356 86 90 4.0 32.0 0.00 0.00 0.01 67 1005.1
20260506162316 85 0 6.0 18.0 0.00 0.00 0.01 66 1005.4
20260506161256 85 0 11.0 20.0 0.00 0.00 0.01 68 1005.6
20260506160747 85 0 8.0 23.0 0.00 0.00 0.01 70 1005.8
20260506160236 84 0 8.0 23.0 0.00 0.00 0.01 71 1005.9
20260506155726 84 0 4.0 22.0 0.00 0.00 0.01 71 1006.2
20260506155216 84 270 7.0 22.0 0.00 0.00 0.01 70 1006.1
20260506154705 84 90 6.0 21.0 0.00 0.00 0.01 71 1006.3
20260506154156 83 315 6.0 19.0 0.00 0.00 0.01 71 1006.4
20260506153645 83 0 10.0 25.0 0.00 0.00 0.01 71 1006.6
20260506153135 82 45 10.0 25.0 0.00 0.00 0.01 71 1006.8
20260506152637 82 0 4.0 21.0 0.00 0.00 0.01 74 1006.7
20260506152116 82 0 6.0 21.0 0.00 0.00 0.01 75 1006.9
20260506151605 82 45 4.0 17.0 0.00 0.00 0.01 75 1007.1
20260506151055 82 0 11.0 20.0 0.00 0.00 0.01 74 1007.2
20260506150545 82 0 5.0 20.0 0.00 0.00 0.01 76 1007.3
20260506150035 82 0 7.0 19.0 0.00 0.00 0.01 75 1007.3
20260506145014 82 0 5.0 21.0 0.00 0.00 0.01 75 1007.6
20260506143954 81 0 11.0 18.0 0.00 0.00 0.01 76 1007.8
20260506142934 80 0 8.0 17.0 0.00 0.00 0.01 77 1008.2
20260506141914 80 270 2.0 13.0 0.00 0.00 0.01 79 1008.6
20260506141404 79 0 6.0 17.0 0.00 0.00 0.01 79 1008.4
20260506140853 79 0 5.0 17.0 0.00 0.00 0.01 80 1008.5
20260506140343 78 90 7.0 15.0 0.00 0.00 0.01 80 1008.6
20260506135835 78 0 8.0 14.0 0.00 0.00 0.01 81 1008.7
20260506134813 78 0 5.0 17.0 0.00 0.00 0.01 82 1008.6
20260506134303 77 225 8.0 17.0 0.00 0.00 0.01 83 1008.5
20260506132732 76 45 4.0 15.0 0.00 0.00 0.01 84 1008.8
20260506132222 76 270 4.0 17.0 0.00 0.00 0.01 84 1009.1
20260506131712 76 45 5.0 17.0 0.00 0.00 0.01 85 1009.2
20260506131202 75 0 6.0 16.0 0.00 0.00 0.01 85 1009.2
20260506130653 75 90 7.0 15.0 0.00 0.00 0.01 85 1009.2
20260506130143 74 90 2.0 15.0 0.00 0.00 0.01 86 1009.4
20260506125631 74 45 4.0 13.0 0.00 0.00 0.01 86 1009.5
20260506125122 74 0 4.0 12.0 0.00 0.00 0.01 87 1009.6
20260506124612 73 0 4.0 16.0 0.00 0.00 0.01 87 1009.7
20260506124102 73 45 4.0 16.0 0.00 0.00 0.01 87 1009.6
20260506123558 73 90 3.0 15.0 0.00 0.00 0.01 87 1010.0
20260506123041 73 90 5.0 15.0 0.00 0.00 0.01 88 1009.9
20260506122531 73 0 3.0 14.0 0.00 0.00 0.01 87 1009.7
20260506122021 72 45 8.0 14.0 0.00 0.00 0.01 87 1009.7
20260506121511 72 90 4.0 15.0 0.00 0.00 0.01 88 1009.7
20260506120451 71 45 4.0 19.0 0.00 0.00 0.01 88 1009.7
20260506115941 71 90 3.0 19.0 0.00 0.00 0.01 88 1009.9
20260506115430 71 0 4.0 15.0 0.00 0.00 0.01 89 1009.8
20260506114921 71 0 4.0 15.0 0.00 0.00 0.01 89 1009.6
20260506114410 70 0 9.0 15.0 0.00 0.00 0.01 89 1009.6
20260506113900 70 0 5.0 14.0 0.00 0.00 0.01 90 1009.6
20260506113350 70 45 6.0 14.0 0.00 0.00 0.01 90 1009.4
20260506112840 69 0 5.0 17.0 0.00 0.00 0.01 91 1009.7
20260506112330 69 270 6.0 17.0 0.00 0.00 0.01 91 1009.4
20260506111820 69 0 6.0 14.0 0.00 0.00 0.01 91 1009.5
20260506111310 69 0 2.0 14.0 0.00 0.00 0.01 91 1009.3
20260506110250 69 135 6.0 13.0 0.00 0.00 0.01 91 1009.5
20260506105739 69 0 2.0 16.0 0.00 0.00 0.01 91 1009.5